FW4151 Weather Reports


time (UTC)temp
C
wind
direction
speed
KPH
gust
KPH
rain 1hr
cm
rain 24hr
cm
rain mn
cm
humidity
%
barometer
mb
20260506013015 15 0.0 0.0 0.00 0.15 0.15 80 1006.4
20260506011513 15 0.0 0.0 0.00 0.15 0.15 82 1006.3
20260506010014 15 0.0 0.0 0.00 0.15 0.15 82 1006.1
20260506004513 15 0.0 0.0 0.00 0.15 0.15 83 1005.8
20260506003013 15 0.0 0.0 0.00 0.15 0.15 82 1005.9
20260506001510 15 0.0 0.0 0.00 0.15 0.15 81 1005.6
20260506000009 15 0.0 0.0 0.00 0.15 0.15 79 1005.5
20260505234513 16 0.0 0.0 0.00 0.15 0.15 79 1005.6
20260505233008 16 0.0 0.0 0.00 0.15 0.15 80 1005.3
20260505231512 16 0.0 0.0 0.00 0.15 0.15 82 1005.2
20260505230011 16 0.0 0.0 0.00 0.15 0.15 83 1005.1
20260505224508 16 0.0 0.0 0.00 0.15 0.15 83 1005.0
20260505223005 16 0.0 0.0 0.00 0.15 0.15 83 1005.1
20260505221506 16 0.0 0.0 0.00 0.15 0.15 82 1005.2
20260505220005 16 0.0 0.0 0.00 0.15 0.15 85 1004.7
20260505214505 16 0.0 0.0 0.00 0.15 0.15 87 1004.6
20260505213011 16 0.0 0.0 0.00 0.15 0.15 84 1004.5
20260505211508 16 0.0 0.0 0.03 0.15 0.15 86 1004.4
20260505210002 16 0.0 0.0 0.08 0.15 0.15 84 1004.5
20260505204501 16 0.0 0.0 0.15 0.15 0.15 82 1004.8
20260505203121 16 0.0 0.0 0.15 0.15 0.15 80 1005.0
20260505201604 17 0.0 0.0 0.13 0.13 0.13 77 1004.9
20260505200059 19 0.0 0.0 0.08 0.08 0.08 66 1004.9
20260505194558 22 0.0 0.0 0.00 0.00 0.00 44 1003.6
20260505193056 22 0.0 0.0 0.00 0.00 0.00 42 1003.2
20260505191611 23 0.0 0.0 0.00 0.00 0.00 41 1003.1
20260505190052 23 0.0 0.0 0.00 0.00 0.00 44 1003.3
20260505184551 22 0.0 0.0 0.00 0.00 0.00 47 1003.6
20260505183049 22 0.0 0.0 0.00 0.00 0.00 49 1004.0
20260505181549 22 0.0 0.0 0.00 0.00 0.00 49 1004.2
20260505180050 21 0.0 0.0 0.00 0.00 0.00 57 1004.5
20260505174547 21 0.0 0.0 0.00 0.00 0.00 58 1004.6
20260505173043 22 0.0 0.0 0.00 0.00 0.00 47 1004.7
20260505171547 22 0.0 0.0 0.00 0.00 0.00 48 1004.7
20260505164543 23 0.0 0.0 0.00 0.00 0.00 46 1004.5
20260505163039 23 0.0 0.0 0.00 0.00 0.00 46 1005.0
20260505161537 23 0.0 0.0 0.00 0.00 0.00 48 1005.1
20260505153028 21 0.0 0.0 0.00 0.00 0.00 53 1005.3
20260505151526 21 0.0 0.0 0.00 0.00 0.00 51 1005.2
20260505124551 14 0.0 0.0 0.00 0.00 0.00 76 1006.1
20260505123050 13 0.0 0.0 0.00 0.00 0.00 79 1006.2
20260505121601 14 0.0 0.0 0.00 0.00 0.00 79 1006.4
20260505120046 14 0.0 0.0 0.00 0.00 0.00 76 1006.4
20260505114544 14 0.0 0.0 0.00 0.00 0.00 68 1006.5
20260505113041 14 0.0 0.0 0.00 0.00 0.00 68 1006.4
20260505111538 13 0.0 0.0 0.00 0.00 0.00 71 1006.3
20260505101523 -17 0.0 0.0 0.00 0.00 0.00 1005.7
20260505100021 -17 0.0 0.0 0.00 0.00 0.00 1005.6
20260505094514 -17 0.0 0.0 0.00 0.00 0.00 1005.5
20260505093020 -17 0.0 0.0 0.00 0.00 0.00 1005.4
20260505091506 12 0.0 0.0 0.00 0.00 0.00 68 1005.4
20260505090003 12 0.0 0.0 0.00 0.00 0.00 67 1005.3
20260505084501 13 0.0 0.0 0.00 0.00 0.00 67 1005.3
20260505083001 13 0.0 0.0 0.00 0.00 0.00 66 1005.2
20260505081603 13 0.0 0.0 0.00 0.00 0.00 66 1005.4
20260505080058 13 0.0 0.0 0.00 0.00 0.00 65 1005.5
20260505074558 13 0.0 0.0 0.00 0.00 0.00 65 1005.5
20260505073058 13 0.0 0.0 0.00 0.00 0.00 64 1005.3
20260505071556 13 0.0 0.0 0.00 0.00 0.00 63 1005.4
20260505070054 13 0.0 0.0 0.00 0.00 0.00 62 1005.6
20260505064554 13 0.0 0.0 0.00 0.00 0.00 63 1005.7
20260505063052 13 0.0 0.0 0.00 0.00 0.00 62 1005.7
20260505061553 13 0.0 0.0 0.00 0.00 0.00 62 1005.7
20260505060050 13 0.0 0.0 0.00 0.00 0.00 62 1005.8
20260505054550 13 0.0 0.0 0.00 0.00 0.00 61 1005.8
20260505053052 13 0.0 0.0 0.00 0.00 0.00 62 1005.9
20260505051548 13 0.0 0.0 0.00 0.00 0.00 62 1005.9
20260505041544 13 0.0 0.0 0.00 0.00 0.00 61 1005.7
20260505040041 13 0.0 0.0 0.00 0.00 0.00 60 1005.8
20260505034541 13 0.0 0.0 0.00 0.00 0.00 60 1005.8
20260505033102 13 0.0 0.0 0.00 0.00 0.00 59 1005.7
20260505031542 13 0.0 0.0 0.00 0.00 0.00 59 1005.7
20260505030038 13 0.0 0.0 0.00 0.00 0.00 58 1005.9
20260505024537 13 0.0 0.0 0.00 0.00 0.00 58 1006.0
20260505023047 13 0.0 0.0 0.00 0.00 0.00 58 1006.2
20260505021537 13 0.0 0.0 0.00 0.00 0.00 57 1006.4
20260505020039 14 0.0 0.0 0.00 0.00 0.00 56 1006.3
20260505014536 14 0.0 0.0 0.00 0.00 0.00 54 1006.2